Henderson, KY

8:26 AM CDT on July 21, 2019 (GMT -0500)
Henderson City-County

Weather History for KEHR - May, 2019

Change the Weather History Date:

Sunday, May 26, 2019

  Actual Average Record
Temperature  
Mean Temperature 80 °F -  
Max Temperature 88 °F 79 °F 95 °F (1953)
Min Temperature 71 °F 57 °F 40 °F (1979)
Cooling Degree Days 14    
Growing Degree Days 30 (Base 50)    
Moisture  
Dew Point 68 °F    
Average Humidity 76    
Maximum Humidity 93    
Minimum Humidity 53    
Precipitation  
Precipitation 0.44 in - - ()
Sea Level Pressure  
Sea Level Pressure 30.04 in    
Wind  
Wind Speed 8 mph (WSW)    
Max Wind Speed 26 mph    
Max Gust Speed 39 mph    
Visibility 9 miles    
Events Rain , Thunderstorm    
Averages and records for this station are not official NWS values.
T = Trace of Precipitation, MM = Missing Value Source: NWS Daily Summary

Daily Weather History Graph

Daily Weather History Graph

Search for Another Location

Airport or City:

Astronomy

May. 26, 2019 Rise Set
Actual Time 5:33 AM CDT 8:02 PM CDT
Civil Twilight 5:02 AM CDT 8:33 PM CDT
Nautical Twilight 4:25 AM CDT 9:10 PM CDT
Astronomical Twilight 3:43 AM CDT 9:52 PM CDT
Moon 1:37 AM CDT (5/26) 12:27 PM CDT (5/26)
Length of Visible Light 15h 30m
Length of Day
14h 29m
Waning Gibbous, 50% of the Moon is Illuminated
May 26
Waning Gibbous
Jun 3
New
Jun 10
First Quarter
Jun 17
Full
Jun 25
Last Quarter

Hourly Weather History & Observations

Time (CDT) Temp. Heat Index Dew Point Humidity Pressure Visibility Wind Dir Wind Speed Gust Speed Precip Events Conditions
12:56 AM 75.0 °F - 66.9 °F 76% 30.04 in 10.0 mi SSW 5.8 mph - N/A   Clear
1:56 AM 72.0 °F - 66.0 °F 81% 30.04 in 10.0 mi SW 4.6 mph - N/A   Clear
2:56 AM 71.1 °F - 66.0 °F 84% 30.04 in 10.0 mi SW 4.6 mph - N/A   Clear
3:56 AM 73.0 °F - 66.0 °F 79% 30.05 in 10.0 mi SW 8.1 mph - N/A   Clear
4:56 AM 72.0 °F - 66.0 °F 81% 30.06 in 10.0 mi SW 9.2 mph - N/A   Clear
5:56 AM 72.0 °F - 66.0 °F 81% 30.06 in 10.0 mi SSW 6.9 mph - N/A   Clear
6:56 AM 73.9 °F - 66.9 °F 79% 30.07 in 10.0 mi SSW 6.9 mph - N/A   Partly Cloudy
7:56 AM 75.0 °F - 66.9 °F 76% 30.06 in 10.0 mi SSW 9.2 mph - 0.00 in Rain Light Rain
8:56 AM 81.0 °F 83.8 °F 68.0 °F 65% 30.06 in 10.0 mi SSW 9.2 mph - 0.00 in   Clear
9:56 AM 84.9 °F 88.2 °F 68.0 °F 57% 30.05 in 10.0 mi SSW 12.7 mph - N/A   Clear
10:56 AM 84.9 °F 87.6 °F 66.9 °F 55% 30.05 in 10.0 mi WSW 15.0 mph - 0.00 in Rain Light Rain
11:56 AM 88.0 °F 92.1 °F 69.1 °F 53% 30.03 in 10.0 mi SW 20.7 mph 26.5 mph 0.00 in   Partly Cloudy
12:56 PM 79.0 °F - 70.0 °F 74% 30.03 in 10.0 mi SW 12.7 mph - 0.04 in   Scattered Clouds
1:56 PM 80.1 °F 83.6 °F 71.1 °F 74% 30.03 in 10.0 mi SSW 10.4 mph 19.6 mph 0.03 in   Partly Cloudy
2:47 PM 78.8 °F - 71.6 °F 78% 30.03 in 10.0 mi SSW 9.2 mph - N/A Thunderstorm Scattered Clouds
2:53 PM 75.2 °F - 69.8 °F 83% 30.07 in 2.5 mi NW 26.5 mph 39.1 mph 0.21 in Rain , Thunderstorm Heavy Thunderstorms and Rain
2:56 PM 72.0 °F - 68.0 °F 87% 30.04 in 1.5 mi NW 16.1 mph 39.1 mph 0.35 in Rain , Thunderstorm Heavy Thunderstorms and Rain
3:03 PM 71.6 °F - 66.2 °F 83% 30.05 in 3.0 mi West 10.4 mph - 0.02 in Rain , Thunderstorm Light Thunderstorms and Rain
3:37 PM 75.2 °F - 69.8 °F 83% 30.06 in 10.0 mi NNW 8.1 mph - 0.02 in   Clear
3:56 PM 75.9 °F - 71.1 °F 85% 30.05 in 10.0 mi Variable 6.9 mph - 0.02 in   Clear
4:56 PM 80.1 °F 83.8 °F 72.0 °F 76% 30.03 in 10.0 mi NW 13.8 mph - N/A   Clear
5:56 PM 82.0 °F 86.3 °F 71.1 °F 69% 30.01 in 10.0 mi West 12.7 mph 18.4 mph N/A   Clear
6:56 PM 82.0 °F 85.5 °F 69.1 °F 65% 30.01 in 10.0 mi WNW 5.8 mph - N/A   Clear
7:56 PM 78.1 °F - 69.1 °F 74% 30.02 in 10.0 mi West 4.6 mph - N/A   Clear
8:56 PM 78.1 °F - 68.0 °F 71% 30.02 in 10.0 mi Calm Calm - N/A   Clear
9:56 PM 75.0 °F - 69.1 °F 82% 30.03 in 10.0 mi Calm Calm - N/A   Clear
10:56 PM 73.0 °F - 69.1 °F 87% 30.04 in 10.0 mi Calm Calm - N/A   Clear
11:56 PM 71.1 °F - 69.1 °F 93% 30.04 in 10.0 mi Calm Calm - N/A   Clear